This demonstration page uses our WeatherBlox Daily Observations layout. Learn more.

Left ArrowRight Arrow

38.89511, -77.03637

Hourly Observations for November 30, 2021

Temp ( °F °C ) Dew Point ( °F °C ) Humidity (%) Winds ( mph kmh ) Pressure ( in mb ) Visibility ( mi km ) Precip ( " mm )
12:52 am 00:52 Cloudy 35 1.7 28 -2.2 76 76 SSW 6 9 30.10 1019 10 16 0.00 0.00
1:52 am 01:52 Cloudy 36 2.2 26 -3.3 67 67 S 6 9 30.10 1019 10 16 0.00 0.00
2:52 am 02:52 Cloudy 36 2.2 26 -3.3 67 67 S 5 7 30.11 1020 10 16 0.00 0.00
3:52 am 03:52 Cloudy 36 2.2 25 -3.9 64 64 Calm 30.09 1019 10 16 0.00 0.00
4:52 am 04:52 Cloudy 36 2.2 27 -2.8 70 70 S 7 11 30.09 1019 10 16 0.00 0.00
5:52 am 05:52 Mostly Cloudy 36 2.2 29 -1.7 76 76 S 8 13 30.08 1019 10 16 0.00 0.00
6:52 am 06:52 Mostly Cloudy 37 2.8 29 -1.7 73 73 S 8 13 30.07 1018 10 16 0.00 0.00
7:52 am 07:52 Cloudy 37 2.8 27 -2.8 67 67 S 6 9 30.06 1018 10 16 0.00 0.00
8:52 am 08:52 Cloudy 39 3.9 27 -2.8 62 62 S 6 9 30.06 1018 10 16 0.00 0.00
9:52 am 09:52 Cloudy 40 4.4 27 -2.8 60 60 S 9 15 30.03 1017 10 16 0.00 0.00
10:52 am 10:52 Cloudy 43 6.1 23 -5 45 45 S 13 20 30.01 1016 10 16 0.00 0.00
11:52 am 11:52 Mostly Cloudy 46 7.8 23 -5 40 40 SSW 14 22 29.97 1015 10 16 0.00 0.00
12:52 pm 12:52 Mostly Cloudy 48 8.9 24 -4.4 39 39 SW 9 15 29.95 1014 10 16 0.00 0.00
1:52 pm 13:52 Mostly Cloudy 49 9.4 27 -2.8 43 43 S 10 17 29.94 1014 10 16 0.00 0.00
2:52 pm 14:52 Partly Cloudy 50 10 27 -2.8 41 41 S 9 15 29.93 1014 10 16 0.00 0.00
3:52 pm 15:52 Mostly Sunny 50 10 27 -2.8 41 41 S 5 7 29.94 1014 10 16 0.00 0.00
4:52 pm 16:52 Mostly Clear 49 9.4 25 -3.9 39 39 Calm 29.95 1014 10 16 0.00 0.00
5:52 pm 17:52 Mostly Clear 46 7.8 28 -2.2 50 50 Calm 29.97 1015 10 16 0.00 0.00
6:52 pm 18:52 Partly Cloudy 41 5 29 -1.7 62 62 NE 5 7 29.98 1015 10 16 0.00 0.00
7:52 pm 19:52 Partly Cloudy 41 5 33 0.6 73 73 Calm 29.99 1016 10 16 0.00 0.00
8:52 pm 20:52 Partly Cloudy 41 5 30 -1.1 65 65 Calm 30.00 1016 10 16 0.00 0.00
9:52 pm 21:52 Partly Cloudy 40 4.4 32 0 73 73 Calm 30.00 1016 10 16 0.00 0.00
10:52 pm 22:52 Partly Cloudy 39 3.9 30 -1.1 70 70 SSW 5 7 30.01 1016 10 16 0.00 0.00
11:52 pm 23:52 Partly Cloudy 37 2.8 28 -2.2 70 70 Calm 30.03 1017 10 16 0.00 0.00

Powered by AerisWeather